,,Stat6,,Stat2,,Stat8,,Stat9,,Stat10,,Wind1,,Wind1,
time,status,PA1M_AVG,status,PR1M_SUM,status,RH1M_AVG,status,SR1M_AVG,status,TA1M_AVG,status,W1dAve1m,status,W1sAve1m,
2004-06-22, 00:00:01,VALID,922.279,VALID,0,VALID,98.1081,VALID,0,VALID,16.4815,VALID,68,VALID,0.0610465,
2004-06-22, 00:01:00,VALID,922.275,VALID,0,VALID,98.6473,VALID,0.0169808,VALID,16.5131,VALID,68,VALID,0.360119,
2004-06-22, 00:02:01,VALID,922.265,VALID,0,VALID,98.7261,VALID,0,VALID,16.5718,VALID,68,VALID,0.317224,
2004-06-22, 00:03:01,VALID,922.267,VALID,0,VALID,98.4858,VALID,0,VALID,16.5749,VALID,68,VALID,0.363867,
2004-06-22, 00:04:01,VALID,922.274,VALID,0,VALID,98.5837,VALID,-0.0339617,VALID,16.5944,VALID,68,VALID,0.47674,
2004-06-22, 00:05:01,VALID,922.27,VALID,0,VALID,98.4298,VALID,0.0169808,VALID,16.594,VALID,70,VALID,0.576265,
2004-06-22, 00:06:00,VALID,922.272,VALID,0,VALID,98.5888,VALID,-0.0169808,VALID,16.6495,VALID,73,VALID,0.705611,
2004-06-22, 00:07:01,VALID,922.261,VALID,0,VALID,98.4781,VALID,-0.0169808,VALID,16.7654,VALID,76,VALID,0.701389,
2004-06-22, 00:08:01,VALID,922.263,VALID,0,VALID,97.2218,VALID,-0.0169808,VALID,16.8334,VALID,76,VALID,0.613372,
2004-06-22, 00:09:01,VALID,922.239,VALID,0,VALID,96.8429,VALID,0,VALID,16.8656,VALID,76,VALID,0.627544,
2004-06-22, 00:10:00,VALID,922.232,VALID,0,VALID,96.4919,VALID,-0.0169808,VALID,16.9267,VALID,76,VALID,0.708651,
2004-06-22, 00:11:01,VALID,922.222,VALID,0,VALID,96.5339,VALID,0,VALID,16.93,VALID,76,VALID,0.71875,
2004-06-22, 00:12:01,VALID,922.218,VALID,0,VALID,97.5244,VALID,0,VALID,17.0528,VALID,76,VALID,0.734375,
2004-06-22, 00:13:01,VALID,922.213,VALID,0,VALID,96.4919,VALID,0,VALID,17.1655,VALID,76,VALID,0.637536,
2004-06-22, 00:14:01,VALID,922.202,VALID,0,VALID,94.2513,VALID,-0.0169808,VALID,17.0749,VALID,72,VALID,0.648256,
2004-06-22, 00:15:01,VALID,922.2,VALID,0,VALID,93.5227,VALID,0,VALID,16.8691,VALID,64,VALID,0.645894,
2004-06-22, 00:16:01,VALID,922.195,VALID,0,VALID,94.7282,VALID,0,VALID,16.759,VALID,63,VALID,0.660334,
2004-06-22, 00:17:01,VALID,922.181,VALID,0,VALID,95.4009,VALID,0,VALID,16.7043,VALID,63,VALID,0.558203,
2004-06-22, 00:18:01,VALID,922.171,VALID,0,VALID,95.9667,VALID,0,VALID,16.6684,VALID,63,VALID,0.405717,
2004-06-22, 00:19:01,VALID,922.157,VALID,0,VALID,96.2605,VALID,-0.0169808,VALID,16.6525,VALID,63,VALID,0.206676,
2004-06-22, 00:20:00,VALID,922.139,VALID,0,VALID,96.5084,VALID,0,VALID,16.6462,VALID,63,VALID,0.046131,
2004-06-22, 00:21:00,VALID,922.133,VALID,0,VALID,96.6979,VALID,-0.0169808,VALID,16.623,VALID,63,VALID,0,
2004-06-22, 00:22:01,VALID,922.111,VALID,0,VALID,97.0641,VALID,0,VALID,16.6497,VALID,63,VALID,0,
2004-06-22, 00:23:01,VALID,922.098,VALID,0,VALID,97.6618,VALID,0.0169808,VALID,16.6914,VALID,63,VALID,0,
2004-06-22, 00:24:01,VALID,922.088,VALID,0,VALID,97.8932,VALID,0,VALID,16.7559,VALID,73,VALID,0.348292,
2004-06-22, 00:25:01,VALID,922.076,VALID,0,VALID,96.9853,VALID,0,VALID,16.7237,VALID,119,VALID,1.01254,
2004-06-22, 00:26:01,VALID,922.069,VALID,0,VALID,96.8861,VALID,0,VALID,16.6628,VALID,131,VALID,1.34193,
2004-06-22, 00:27:01,VALID,922.062,VALID,0,VALID,96.7627,VALID,0,VALID,16.5944,VALID,140,VALID,1.34428,
2004-06-22, 00:28:01,VALID,922.051,VALID,0,VALID,97.4075,VALID,0,VALID,16.5755,VALID,141,VALID,1.30941,
2004-06-22, 00:29:00,VALID,922.026,VALID,0,VALID,97.9403,VALID,0,VALID,16.6071,VALID,143,VALID,1.27637,
2004-06-22, 00:30:01,VALID,922.004,VALID,0,VALID,98.2963,VALID,0,VALID,16.6557,VALID,144,VALID,1.28034,
2004-06-22, 00:31:01,VALID,921.986,VALID,0,VALID,98.4692,VALID,0,VALID,16.7136,VALID,143,VALID,1.18281,
2004-06-22, 00:32:01,VALID,921.97,VALID,0,VALID,98.8202,VALID,0.0169808,VALID,16.7525,VALID,144,VALID,1.00573,
2004-06-22, 00:33:01,VALID,921.959,VALID,0,VALID,98.6803,VALID,0,VALID,16.7721,VALID,136,VALID,1.0823,
2004-06-22, 00:34:01,VALID,921.949,VALID,0,VALID,98.7388,VALID,0.0169808,VALID,16.7396,VALID,127,VALID,1.08931,
2004-06-22, 00:35:01,VALID,921.947,VALID,0,VALID,99.0885,VALID,0.0169808,VALID,16.7432,VALID,135,VALID,1.1862,
2004-06-22, 00:36:01,VALID,921.94,VALID,0,VALID,99.4013,VALID,0,VALID,16.762,VALID,138,VALID,0.947129,
2004-06-22, 00:37:01,VALID,921.93,VALID,0,VALID,99.4789,VALID,0.0169808,VALID,16.7721,VALID,145,VALID,0.772017,
2004-06-22, 00:38:01,VALID,921.919,VALID,0,VALID,99.5323,VALID,0.0169808,VALID,16.7751,VALID,145,VALID,0.943132,
2004-06-22, 00:39:01,VALID,921.904,VALID,0,VALID,99.6518,VALID,0.0169808,VALID,16.7753,VALID,142,VALID,1.00055,
2004-06-22, 00:40:01,VALID,921.892,VALID,0,VALID,99.7752,VALID,-0.0169808,VALID,16.785,VALID,135,VALID,1.0973,
2004-06-22, 00:41:01,VALID,921.863,VALID,0,VALID,99.9405,VALID,0,VALID,16.8011,VALID,128,VALID,1.22923,
2004-06-22, 00:42:01,VALID,921.841,VALID,0,VALID,99.8858,VALID,0.0169808,VALID,16.8207,VALID,126,VALID,1.09884,
2004-06-22, 00:43:01,VALID,921.821,VALID,0,VALID,99.648,VALID,0,VALID,16.8076,VALID,127,VALID,0.95625,
2004-06-22, 00:44:01,VALID,921.812,VALID,0,VALID,99.7434,VALID,0,VALID,16.794,VALID,121,VALID,0.890053,
2004-06-22, 00:45:01,VALID,921.818,VALID,0,VALID,99.6544,VALID,0,VALID,16.8138,VALID,117,VALID,0.610465,
2004-06-22, 00:46:01,VALID,921.823,VALID,0,VALID,99.6773,VALID,0,VALID,16.8332,VALID,117,VALID,0.751453,
2004-06-22, 00:47:01,VALID,921.823,VALID,0,VALID,99.5972,VALID,0.0339617,VALID,16.8751,VALID,118,VALID,0.68471,
2004-06-22, 00:48:01,VALID,921.832,VALID,0,VALID,99.4496,VALID,0.0169808,VALID,16.8908,VALID,118,VALID,0.700747,
2004-06-22, 00:49:01,VALID,921.825,VALID,0,VALID,98.8622,VALID,0,VALID,16.8945,VALID,118,VALID,0.497461,
2004-06-22, 00:50:00,VALID,921.814,VALID,0,VALID,97.644,VALID,-0.0169808,VALID,16.7749,VALID,118,VALID,0.225229,
2004-06-22, 00:51:00,VALID,921.789,VALID,0,VALID,96.9052,VALID,-0.0849042,VALID,16.6275,VALID,118,VALID,0.261186,
2004-06-22, 00:52:00,VALID,921.781,VALID,0,VALID,97.0463,VALID,-0.0849042,VALID,16.5342,VALID,118,VALID,0.232195,
2004-06-22, 00:53:00,VALID,921.77,VALID,0,VALID,97.1608,VALID,-0.101885,VALID,16.4632,VALID,118,VALID,0.259811,
2004-06-22, 00:54:00,VALID,921.772,VALID,0,VALID,97.5117,VALID,-0.101885,VALID,16.4116,VALID,118,VALID,0.189499,
2004-06-22, 00:55:00,VALID,921.777,VALID,0,VALID,97.8881,VALID,-0.0849042,VALID,16.3761,VALID,118,VALID,0.516868,
2004-06-22, 00:56:00,VALID,921.792,VALID,0,VALID,98.6752,VALID,-0.0679233,VALID,16.4087,VALID,137,VALID,0.985828,
2004-06-22, 00:57:00,VALID,921.804,VALID,0,VALID,99.4242,VALID,-0.0849042,VALID,16.4894,VALID,133,VALID,1.17727,
2004-06-22, 00:58:00,VALID,921.825,VALID,0,VALID,99.5361,VALID,-0.101885,VALID,16.5924,VALID,140,VALID,1.06416,
2004-06-22, 00:59:00,VALID,921.817,VALID,0,VALID,99.3734,VALID,-0.0849042,VALID,16.6568,VALID,148,VALID,0.989211,
2004-06-22, 01:00:00,VALID,921.823,VALID,0,VALID,99.1737,VALID,-0.0849042,VALID,16.7148,VALID,139,VALID,0.915587,
2004-06-22, 01:01:00,VALID,921.822,VALID,0,VALID,99.208,VALID,-0.0849042,VALID,16.7667,VALID,136,VALID,1.13579,
2004-06-22, 01:02:00,VALID,921.816,VALID,0,VALID,99.0135,VALID,-0.0679233,VALID,16.7953,VALID,134,VALID,0.764436,
2004-06-22, 01:03:00,VALID,921.804,VALID,0,VALID,98.8024,VALID,-0.0679233,VALID,16.7697,VALID,127,VALID,0.66276,
2004-06-22, 01:04:00,VALID,921.791,VALID,0,VALID,99.0313,VALID,-0.101885,VALID,16.7731,VALID,123,VALID,0.783203,
2004-06-22, 01:05:00,VALID,921.793,VALID,0,VALID,98.9931,VALID,-0.101885,VALID,16.7699,VALID,122,VALID,0.738095,
2004-06-22, 01:06:00,VALID,921.796,VALID,0,VALID,98.8049,VALID,0,VALID,16.7691,VALID,131,VALID,1.05832,
2004-06-22, 01:07:00,VALID,921.798,VALID,0,VALID,98.763,VALID,0,VALID,16.7555,VALID,130,VALID,1.27326,
2004-06-22, 01:08:00,VALID,921.797,VALID,0,VALID,98.9474,VALID,0,VALID,16.7949,VALID,128,VALID,1.14773,
2004-06-22, 01:09:00,VALID,921.796,VALID,0,VALID,98.5684,VALID,0,VALID,16.7781,VALID,120,VALID,0.747582,
2004-06-22, 01:10:00,VALID,921.786,VALID,0,VALID,98.5583,VALID,0.0169808,VALID,16.7783,VALID,109,VALID,0.897905,
2004-06-22, 01:11:00,VALID,921.787,VALID,0,VALID,98.6918,VALID,0,VALID,16.8009,VALID,101,VALID,0.824219,
2004-06-22, 01:12:00,VALID,921.793,VALID,0,VALID,99.016,VALID,0,VALID,16.859,VALID,98,VALID,0.852134,
2004-06-22, 01:13:00,VALID,921.797,VALID,0,VALID,99.0911,VALID,-0.0169808,VALID,16.9433,VALID,89,VALID,0.940476,
2004-06-22, 01:14:00,VALID,921.789,VALID,0,VALID,98.8622,VALID,0,VALID,16.9947,VALID,107,VALID,0.973292,
2004-06-22, 01:15:00,VALID,921.78,VALID,0,VALID,98.5099,VALID,0.0339617,VALID,17.0169,VALID,113,VALID,1.05575,
2004-06-22, 01:16:00,VALID,921.75,VALID,0,VALID,98.3014,VALID,0.0169808,VALID,17.0336,VALID,121,VALID,1.17224,
2004-06-22, 01:17:00,VALID,921.722,VALID,0,VALID,98.0865,VALID,0,VALID,17.0265,VALID,115,VALID,1.1351,
2004-06-22, 01:18:00,VALID,921.714,VALID,0,VALID,97.7915,VALID,0,VALID,17.0108,VALID,118,VALID,1.35295,
2004-06-22, 01:19:00,VALID,921.696,VALID,0,VALID,97.5766,VALID,0,VALID,16.9655,VALID,123,VALID,1.44567,
2004-06-22, 01:20:00,VALID,921.678,VALID,0,VALID,97.6236,VALID,0,VALID,16.9207,VALID,116,VALID,1.63948,
2004-06-22, 01:21:00,VALID,921.674,VALID,0,VALID,97.7114,VALID,-0.0169808,VALID,16.8691,VALID,119,VALID,1.43025,
2004-06-22, 01:22:00,VALID,921.673,VALID,0,VALID,97.7177,VALID,0,VALID,16.8041,VALID,113,VALID,1.1532,
2004-06-22, 01:23:00,VALID,921.667,VALID,0,VALID,97.7889,VALID,0,VALID,16.7596,VALID,113,VALID,1.0202,
2004-06-22, 01:24:00,VALID,921.674,VALID,0,VALID,98.0026,VALID,-0.0169808,VALID,16.7108,VALID,117,VALID,1.06788,
2004-06-22, 01:25:00,VALID,921.665,VALID,0,VALID,98.0687,VALID,0.0169808,VALID,16.669,VALID,125,VALID,1.05712,
2004-06-22, 01:26:00,VALID,921.656,VALID,0,VALID,98.3065,VALID,0,VALID,16.6434,VALID,123,VALID,1.10238,
2004-06-22, 01:27:00,VALID,921.628,VALID,0,VALID,98.4387,VALID,-0.0169808,VALID,16.6013,VALID,113,VALID,1.12617,
2004-06-22, 01:28:00,VALID,921.621,VALID,0,VALID,98.6638,VALID,0,VALID,16.5658,VALID,107,VALID,0.941236,
2004-06-22, 01:29:00,VALID,921.604,VALID,0,VALID,98.8139,VALID,0.0169808,VALID,16.5239,VALID,107,VALID,1.09473,
2004-06-22, 01:30:00,VALID,921.6,VALID,0,VALID,98.8889,VALID,0.0339617,VALID,16.4942,VALID,114,VALID,0.706854,
2004-06-22, 01:31:00,VALID,921.589,VALID,0,VALID,98.9194,VALID,0.0169808,VALID,16.4884,VALID,106,VALID,0.716844,
2004-06-22, 01:32:00,VALID,921.583,VALID,0,VALID,98.9537,VALID,0,VALID,16.4751,VALID,94,VALID,1.00142,
2004-06-22, 01:33:00,VALID,921.587,VALID,0,VALID,98.9575,VALID,0,VALID,16.5045,VALID,97,VALID,1.08183,
2004-06-22, 01:34:00,VALID,921.584,VALID,0,VALID,98.6829,VALID,0,VALID,16.5499,VALID,98,VALID,1.27865,
2004-06-22, 01:35:00,VALID,921.568,VALID,0,VALID,98.3077,VALID,0,VALID,16.64,VALID,102,VALID,1.4573,
2004-06-22, 01:36:00,VALID,921.558,VALID,0,VALID,97.574,VALID,0,VALID,16.7299,VALID,109,VALID,1.367,
2004-06-22, 01:37:00,VALID,921.561,VALID,0,VALID,96.9688,VALID,0.0339617,VALID,16.8267,VALID,107,VALID,1.43986,
2004-06-22, 01:38:00,VALID,921.557,VALID,0,VALID,96.4054,VALID,0.0339617,VALID,16.9035,VALID,99,VALID,1.34288,
2004-06-22, 01:39:00,VALID,921.56,VALID,0,VALID,95.9883,VALID,0.0169808,VALID,16.965,VALID,87,VALID,1.20969,
2004-06-22, 01:40:00,VALID,921.553,VALID,0,VALID,95.4822,VALID,0.0169808,VALID,17.0265,VALID,89,VALID,1.24782,
2004-06-22, 01:41:00,VALID,921.55,VALID,0,VALID,95.0448,VALID,0.0169808,VALID,17.0881,VALID,94,VALID,1.6373,
2004-06-22, 01:42:00,VALID,921.535,VALID,0,VALID,94.334,VALID,0.0509425,VALID,17.1524,VALID,94,VALID,1.55469,
2004-06-22, 01:43:00,VALID,921.519,VALID,0,VALID,93.6816,VALID,0.0169808,VALID,17.2305,VALID,100,VALID,1.39974,
2004-06-22, 01:44:00,VALID,921.504,VALID,0,VALID,93.1056,VALID,0.0339617,VALID,17.2653,VALID,89,VALID,1.02816,
2004-06-22, 01:45:00,VALID,921.479,VALID,0,VALID,93.0954,VALID,0,VALID,17.2683,VALID,92,VALID,1.39149,
2004-06-22, 01:46:00,VALID,921.459,VALID,0,VALID,93.1069,VALID,0,VALID,17.3006,VALID,105,VALID,1.39462,
2004-06-22, 01:47:00,VALID,921.435,VALID,0,VALID,93.009,VALID,0.0679233,VALID,17.3137,VALID,105,VALID,1.44085,
2004-06-22, 01:48:00,VALID,921.417,VALID,0,VALID,93.2493,VALID,0,VALID,17.3008,VALID,107,VALID,1.64639,
2004-06-22, 01:49:00,VALID,921.403,VALID,0,VALID,93.2493,VALID,0.0169808,VALID,17.3142,VALID,105,VALID,1.67315,
2004-06-22, 01:50:00,VALID,921.407,VALID,0,VALID,93.1272,VALID,0.0169808,VALID,17.3172,VALID,112,VALID,1.74665,
2004-06-22, 01:51:00,VALID,921.417,VALID,0,VALID,93.215,VALID,0.0169808,VALID,17.3105,VALID,100,VALID,1.44059,
2004-06-22, 01:52:00,VALID,921.421,VALID,0,VALID,93.2798,VALID,0.0169808,VALID,17.2812,VALID,76,VALID,1.30246,
2004-06-22, 01:53:00,VALID,921.435,VALID,0,VALID,92.7292,VALID,0.0169808,VALID,17.1939,VALID,69,VALID,1.27471,
2004-06-22, 01:54:00,VALID,921.435,VALID,0,VALID,93.1895,VALID,0.0169808,VALID,17.0844,VALID,73,VALID,1.19241,
2004-06-22, 01:55:00,VALID,921.426,VALID,0,VALID,94.3213,VALID,0.0509425,VALID,17.0231,VALID,88,VALID,1.27401,
2004-06-22, 01:56:00,VALID,921.423,VALID,0,VALID,94.54,VALID,0.0339617,VALID,17.0554,VALID,91,VALID,1.15792,
2004-06-22, 01:57:00,VALID,921.408,VALID,0,VALID,94.2958,VALID,0.0169808,VALID,17.104,VALID,108,VALID,1.06195,
2004-06-22, 01:58:00,VALID,921.39,VALID,0,VALID,94.0135,VALID,0.0339617,VALID,17.1296,VALID,120,VALID,1.30859,
2004-06-22, 01:59:00,VALID,921.37,VALID,0,VALID,93.6066,VALID,0,VALID,17.0911,VALID,125,VALID,1.19204,
2004-06-22, 02:00:00,VALID,921.354,VALID,0,VALID,93.688,VALID,0,VALID,16.9846,VALID,124,VALID,1.01715,
2004-06-22, 02:01:00,VALID,921.337,VALID,0,VALID,94.8846,VALID,-0.0169808,VALID,16.8781,VALID,111,VALID,1.21457,
2004-06-22, 02:02:00,VALID,921.324,VALID,0,VALID,95.3144,VALID,0.0339617,VALID,16.8237,VALID,112,VALID,0.809152,
2004-06-22, 02:03:00,VALID,921.308,VALID,0,VALID,95.57,VALID,0,VALID,16.7846,VALID,103,VALID,0.894626,
2004-06-22, 02:04:00,VALID,921.292,VALID,0,VALID,95.7963,VALID,0.0339617,VALID,16.759,VALID,106,VALID,1.04383,
2004-06-22, 02:05:00,VALID,921.289,VALID,0,VALID,95.9833,VALID,0.0339617,VALID,16.7684,VALID,107,VALID,0.970274,
2004-06-22, 02:06:00,VALID,921.28,VALID,0,VALID,96.1816,VALID,0.0679233,VALID,16.8037,VALID,108,VALID,1.0609,
2004-06-22, 02:07:00,VALID,921.286,VALID,0,VALID,95.8942,VALID,0.0849042,VALID,16.8422,VALID,108,VALID,0.842988,
2004-06-22, 02:08:00,VALID,921.293,VALID,0,VALID,94.5629,VALID,0.0339617,VALID,16.8263,VALID,94,VALID,0.493823,
2004-06-22, 02:09:00,VALID,921.297,VALID,0,VALID,93.1895,VALID,0.0169808,VALID,16.6813,VALID,54,VALID,0.901414,
2004-06-22, 02:10:00,VALID,921.314,VALID,0,VALID,93.5507,VALID,0,VALID,16.4684,VALID,45,VALID,0.802871,
2004-06-22, 02:11:00,VALID,921.332,VALID,0,VALID,94.3759,VALID,0,VALID,16.32,VALID,44,VALID,0.485085,
2004-06-22, 02:12:00,VALID,921.344,VALID,0,VALID,95.3742,VALID,0.0169808,VALID,16.2391,VALID,44,VALID,0.154726,
2004-06-22, 02:13:00,VALID,921.351,VALID,0,VALID,96.2567,VALID,0.0169808,VALID,16.2426,VALID,44,VALID,0,
2004-06-22, 02:14:00,VALID,921.34,VALID,0,VALID,96.6598,VALID,-0.0169808,VALID,16.2555,VALID,44,VALID,0,
2004-06-22, 02:15:00,VALID,921.315,VALID,0,VALID,96.9242,VALID,-0.0339617,VALID,16.2589,VALID,44,VALID,0.0708576,
2004-06-22, 02:16:00,VALID,921.294,VALID,0,VALID,96.2617,VALID,0,VALID,16.2498,VALID,86,VALID,0.520894,
2004-06-22, 02:17:00,VALID,921.268,VALID,0,VALID,96.4054,VALID,0,VALID,16.1851,VALID,123,VALID,0.946332,
2004-06-22, 02:18:00,VALID,921.256,VALID,0,VALID,97.7266,VALID,0.0169808,VALID,16.2039,VALID,105,VALID,0.875888,
2004-06-22, 02:19:00,VALID,921.277,VALID,0,VALID,97.3451,VALID,0,VALID,16.2785,VALID,96,VALID,0.764695,
2004-06-22, 02:20:00,VALID,921.279,VALID,0,VALID,96.6954,VALID,0,VALID,16.246,VALID,80,VALID,0.776526,
2004-06-22, 02:21:00,VALID,921.276,VALID,0,VALID,96.5402,VALID,0,VALID,16.2075,VALID,80,VALID,0.891146,
2004-06-22, 02:22:00,VALID,921.293,VALID,0,VALID,97.4837,VALID,0,VALID,16.2527,VALID,80,VALID,0.964935,
2004-06-22, 02:23:00,VALID,921.296,VALID,0,VALID,96.9128,VALID,0,VALID,16.34,VALID,92,VALID,0.770241,
2004-06-22, 02:24:00,VALID,921.299,VALID,0,VALID,95.7238,VALID,0,VALID,16.3107,VALID,130,VALID,0.572222,
2004-06-22, 02:25:00,VALID,921.289,VALID,0,VALID,95.8841,VALID,0.0169808,VALID,16.2654,VALID,135,VALID,0.553052,
2004-06-22, 02:26:00,VALID,921.299,VALID,0,VALID,96.3622,VALID,0,VALID,16.2426,VALID,134,VALID,0.801829,
2004-06-22, 02:27:00,VALID,921.296,VALID,0,VALID,95.2203,VALID,0,VALID,16.1845,VALID,115,VALID,0.450149,
2004-06-22, 02:28:00,VALID,921.3,VALID,0,VALID,94.0746,VALID,-0.0339617,VALID,15.9398,VALID,61,VALID,0.631597,
2004-06-22, 02:29:00,VALID,921.302,VALID,0,VALID,95.4199,VALID,0,VALID,15.8333,VALID,53,VALID,0.482617,
2004-06-22, 02:30:00,VALID,921.284,VALID,0,VALID,96.7551,VALID,0.0169808,VALID,15.8269,VALID,63,VALID,0.529474,
2004-06-22, 02:31:00,VALID,921.262,VALID,0,VALID,98.1564,VALID,0,VALID,15.9138,VALID,110,VALID,0.897917,
2004-06-22, 02:32:00,VALID,921.239,VALID,0,VALID,98.0229,VALID,0,VALID,16.0267,VALID,123,VALID,0.990234,
2004-06-22, 02:33:00,VALID,921.203,VALID,0,VALID,97.5041,VALID,0.0169808,VALID,16.1079,VALID,131,VALID,1.11644,
2004-06-22, 02:34:00,VALID,921.16,VALID,0,VALID,97.2765,VALID,0,VALID,16.1394,VALID,131,VALID,1.22284,
2004-06-22, 02:35:00,VALID,921.114,VALID,0,VALID,97.148,VALID,0,VALID,16.2041,VALID,129,VALID,1.24486,
2004-06-22, 02:36:00,VALID,921.091,VALID,0,VALID,97.0756,VALID,-0.0679233,VALID,16.27,VALID,124,VALID,1.36757,
2004-06-22, 02:37:00,VALID,921.066,VALID,0,VALID,96.9115,VALID,-0.0849042,VALID,16.3472,VALID,114,VALID,1.52325,
2004-06-22, 02:38:00,VALID,921.06,VALID,0,VALID,96.3482,VALID,-0.0509425,VALID,16.4576,VALID,104,VALID,1.46953,
2004-06-22, 02:39:00,VALID,921.057,VALID,0,VALID,95.954,VALID,-0.101885,VALID,16.5868,VALID,109,VALID,1.60265,
2004-06-22, 02:40:00,VALID,921.057,VALID,0,VALID,95.1249,VALID,-0.0849042,VALID,16.6899,VALID,114,VALID,1.12926,
2004-06-22, 02:41:00,VALID,921.052,VALID,0,VALID,94.4637,VALID,-0.101885,VALID,16.6931,VALID,111,VALID,0.903646,
2004-06-22, 02:42:00,VALID,921.044,VALID,0,VALID,94.6214,VALID,-0.101885,VALID,16.6413,VALID,106,VALID,1.01649,
2004-06-22, 02:43:00,VALID,921.003,VALID,0,VALID,95.3958,VALID,-0.0849042,VALID,16.6025,VALID,111,VALID,1.46857,
2004-06-22, 02:44:00,VALID,920.972,VALID,0,VALID,95.8866,VALID,-0.101885,VALID,16.6385,VALID,106,VALID,1.39668,
2004-06-22, 02:45:00,VALID,920.962,VALID,0,VALID,95.7455,VALID,-0.0849042,VALID,16.6576,VALID,93,VALID,1.03472,
2004-06-22, 02:46:00,VALID,920.949,VALID,0,VALID,95.9693,VALID,-0.101885,VALID,16.6677,VALID,105,VALID,1.18981,
2004-06-22, 02:47:00,VALID,920.954,VALID,0,VALID,96.0201,VALID,-0.118866,VALID,16.6774,VALID,112,VALID,1.32649,
2004-06-22, 02:48:00,VALID,920.955,VALID,0,VALID,95.6997,VALID,-0.0849042,VALID,16.6413,VALID,108,VALID,1.17969,
2004-06-22, 02:49:00,VALID,920.954,VALID,0,VALID,95.6221,VALID,-0.101885,VALID,16.5896,VALID,110,VALID,1.24432,
2004-06-22, 02:50:00,VALID,920.93,VALID,0,VALID,95.603,VALID,-0.0849042,VALID,16.564,VALID,119,VALID,1.32351,
2004-06-22, 02:51:00,VALID,920.926,VALID,0,VALID,95.3487,VALID,0.0169808,VALID,16.5013,VALID,125,VALID,1.22005,
2004-06-22, 02:52:00,VALID,920.896,VALID,0,VALID,95.6386,VALID,0.0509425,VALID,16.4464,VALID,126,VALID,1.65371,
2004-06-22, 02:53:00,VALID,920.877,VALID,0,VALID,96.1715,VALID,0.0169808,VALID,16.4309,VALID,123,VALID,1.8418,
2004-06-22, 02:54:00,VALID,920.845,VALID,0,VALID,96.6992,VALID,0.0169808,VALID,16.4497,VALID,123,VALID,1.77915,
2004-06-22, 02:55:00,VALID,920.823,VALID,0,VALID,96.6712,VALID,0.0169808,VALID,16.4817,VALID,128,VALID,1.8058,
2004-06-22, 02:56:00,VALID,920.813,VALID,0,VALID,96.511,VALID,0.0339617,VALID,16.5107,VALID,127,VALID,1.53906,
2004-06-22, 02:57:00,VALID,920.802,VALID,0,VALID,96.5364,VALID,0.0169808,VALID,16.5142,VALID,128,VALID,1.44949,
2004-06-22, 02:58:00,VALID,920.792,VALID,0,VALID,96.1956,VALID,0,VALID,16.4849,VALID,127,VALID,1.21246,
2004-06-22, 02:59:00,VALID,920.796,VALID,0,VALID,96.1498,VALID,0.0339617,VALID,16.4394,VALID,134,VALID,1.18369,
2004-06-22, 03:00:00,VALID,920.781,VALID,0,VALID,96.628,VALID,0,VALID,16.414,VALID,132,VALID,1.3839,
2004-06-22, 03:01:00,VALID,920.781,VALID,0,VALID,96.7767,VALID,0.0169808,VALID,16.4174,VALID,123,VALID,1.3912,
2004-06-22, 03:02:00,VALID,920.76,VALID,0,VALID,96.7475,VALID,0.0339617,VALID,16.4135,VALID,117,VALID,1.33256,
2004-06-22, 03:03:00,VALID,920.745,VALID,0,VALID,96.9675,VALID,0.0169808,VALID,16.4589,VALID,108,VALID,0.997396,
2004-06-22, 03:04:00,VALID,920.726,VALID,0,VALID,96.7348,VALID,0,VALID,16.5077,VALID,93,VALID,0.963672,
2004-06-22, 03:05:00,VALID,920.72,VALID,0,VALID,96.4194,VALID,0,VALID,16.5398,VALID,112,VALID,0.884629,
2004-06-22, 03:06:00,VALID,920.714,VALID,0,VALID,95.8586,VALID,0.0169808,VALID,16.5529,VALID,134,VALID,0.992188,
2004-06-22, 03:07:00,VALID,920.726,VALID,0,VALID,95.5992,VALID,0.0169808,VALID,16.5372,VALID,139,VALID,1.2184,
2004-06-22, 03:08:00,VALID,920.703,VALID,0,VALID,95.9553,VALID,0.0339617,VALID,16.5043,VALID,137,VALID,1.35614,
2004-06-22, 03:09:00,VALID,920.683,VALID,0,VALID,95.9629,VALID,0.0509425,VALID,16.5017,VALID,127,VALID,1.04112,
2004-06-22, 03:10:00,VALID,920.652,VALID,0,VALID,96.071,VALID,0.0169808,VALID,16.4847,VALID,116,VALID,1.03437,
2004-06-22, 03:11:00,VALID,920.607,VALID,0,VALID,96.3088,VALID,0.0169808,VALID,16.5301,VALID,117,VALID,1.21875,
2004-06-22, 03:12:00,VALID,920.583,VALID,0,VALID,96.1041,VALID,0.0169808,VALID,16.6243,VALID,110,VALID,1.36846,
2004-06-22, 03:13:00,VALID,920.579,VALID,0,VALID,95.3932,VALID,0.0849042,VALID,16.7007,VALID,83,VALID,1.11836,
2004-06-22, 03:14:00,VALID,920.569,VALID,0,VALID,94.5985,VALID,0.0169808,VALID,16.7043,VALID,75,VALID,0.912847,
2004-06-22, 03:15:00,VALID,920.586,VALID,0,VALID,94.2119,VALID,0.0169808,VALID,16.6396,VALID,74,VALID,0.938072,
2004-06-22, 03:16:00,VALID,920.586,VALID,0,VALID,94.2882,VALID,0.0339617,VALID,16.5688,VALID,59,VALID,0.837891,
2004-06-22, 03:17:00,VALID,920.575,VALID,0,VALID,94.4726,VALID,0,VALID,16.4688,VALID,59,VALID,0.962391,
2004-06-22, 03:18:00,VALID,920.574,VALID,0,VALID,95.6018,VALID,0.0509425,VALID,16.4006,VALID,64,VALID,1.33485,
2004-06-22, 03:19:00,VALID,920.547,VALID,0,VALID,96.1206,VALID,0.0339617,VALID,16.4206,VALID,62,VALID,1.23783,
2004-06-22, 03:20:00,VALID,920.553,VALID,0,VALID,95.0575,VALID,0.0169808,VALID,16.3656,VALID,46,VALID,1.12917,
2004-06-22, 03:21:00,VALID,920.573,VALID,0,VALID,95.4886,VALID,-0.0849042,VALID,16.2535,VALID,52,VALID,0.871626,
2004-06-22, 03:22:00,VALID,920.577,VALID,0,VALID,96.7373,VALID,-0.0849042,VALID,16.2831,VALID,63,VALID,0.627604,
2004-06-22, 03:23:00,VALID,920.56,VALID,0,VALID,96.7271,VALID,-0.0509425,VALID,16.2991,VALID,66,VALID,0.556323,
2004-06-22, 03:24:00,VALID,920.547,VALID,0,VALID,97.0819,VALID,-0.0679233,VALID,16.318,VALID,74,VALID,0.668857,
2004-06-22, 03:25:00,VALID,920.534,VALID,0,VALID,96.3393,VALID,-0.0679233,VALID,16.3251,VALID,74,VALID,0.40758,
2004-06-22, 03:26:00,VALID,920.526,VALID,0,VALID,95.2839,VALID,-0.0679233,VALID,16.2541,VALID,98,VALID,0.698289,
2004-06-22, 03:27:00,VALID,920.511,VALID,0,VALID,95.893,VALID,-0.0679233,VALID,16.1799,VALID,122,VALID,0.957589,
2004-06-22, 03:28:00,VALID,920.503,VALID,0,VALID,96.2134,VALID,-0.0849042,VALID,16.1575,VALID,119,VALID,0.474144,
2004-06-22, 03:29:00,VALID,920.502,VALID,0,VALID,95.9057,VALID,-0.0509425,VALID,16.0865,VALID,119,VALID,0.276834,
2004-06-22, 03:30:00,VALID,920.493,VALID,0,VALID,96.3749,VALID,-0.0509425,VALID,16.0119,VALID,119,VALID,0.249467,
2004-06-22, 03:31:00,VALID,920.494,VALID,0,VALID,96.6013,VALID,-0.0849042,VALID,15.9698,VALID,113,VALID,0.587003,
2004-06-22, 03:32:00,VALID,920.496,VALID,0,VALID,97.0539,VALID,-0.0849042,VALID,15.9285,VALID,88,VALID,0.587003,
2004-06-22, 03:33:00,VALID,920.508,VALID,0,VALID,96.8174,VALID,-0.0849042,VALID,15.8998,VALID,88,VALID,0.162574,
2004-06-22, 03:34:00,VALID,920.518,VALID,0,VALID,97.0171,VALID,-0.0849042,VALID,15.8738,VALID,88,VALID,0,
2004-06-22, 03:35:00,VALID,920.524,VALID,0,VALID,97.5194,VALID,-0.0509425,VALID,15.8799,VALID,88,VALID,0.0199855,